Find Starlink 5617

NORAD ID: 55753 Int'l Des: 2023-028 Owner: SPXS Country: US Constellation: starlink operational
LEOCIRCULAR

实时位置

正在加载3D地球...

关于 Starlink 5617

正在加载描述...

即将过境

Passes for default location (London). Set your location on the main map for personalized predictions.

高度历史

Loading altitude history...

两行轨道根数

1 55753U 23028N 26133.13065727 -.00000126 00000-0 -28026-5 0 9990
2 55753 69.9995 81.9470 0002973 270.4828 89.5990 14.98328398175698
Epoch: May 13, 2026 • Age: 8 hours

当前状态

高度 578.0 km
速度 7.57 km/s
星下点 37.37°N, 56.03°E
发射日期 Mar 3, 2023
运行时间 3.1 years
类型 internet

技术详情

分类 Payload
质量 305.00 kg
干质量 290.00 kg
总质量 305.00 kg
长度 0.20 m
直径 2.80 m
跨度 9.00 m
形状 Box + pan
制造商 SPXS
平台类型 Starlink
阶段状态 In Orbit
所有者/国家 SPXS/US

Most Searched